Time,TemperatureF,DewpointF,PressureIn,WindDirection,WindDirectionDegrees,WindSpeedMPH,WindSpeedGustMPH,Humidity,HourlyPrecipIn,Conditions,Clouds,dailyrainin,SoftwareType,DateUTC
2013-03-22 00:02:00,33.0,28.0,29.84,East,84,1.0,7.0,83,0.00,,,0.00,,2013-03-22 05:02:00,
2013-03-22 00:12:00,33.0,28.0,29.84,East,84,1.0,7.0,83,0.00,,,0.00,,2013-03-22 05:12:00,
2013-03-22 00:22:00,33.0,28.0,29.84,East,87,0.0,0.0,83,0.00,,,0.00,,2013-03-22 05:22:00,
2013-03-22 00:32:00,32.0,27.0,29.85,ENE,73,4.0,9.0,83,0.00,,,0.00,,2013-03-22 05:32:00,
2013-03-22 00:42:00,32.0,27.0,29.85,ENE,73,4.0,9.0,83,0.00,,,0.00,,2013-03-22 05:42:00,
2013-03-22 00:52:00,32.0,27.0,29.85,East,92,2.0,6.0,83,0.00,,,0.00,,2013-03-22 05:52:00,
2013-03-22 01:02:00,32.0,28.0,29.86,East,98,1.0,4.0,84,0.00,,,0.00,,2013-03-22 06:02:00,
2013-03-22 01:13:00,32.0,28.0,29.86,East,98,1.0,4.0,84,0.00,,,0.00,,2013-03-22 06:13:00,
2013-03-22 01:22:00,32.0,28.0,29.87,East,101,3.0,6.0,84,0.00,,,0.00,,2013-03-22 06:22:00,
2013-03-22 01:32:00,32.0,28.0,29.88,East,80,3.0,7.0,84,0.00,,,0.00,,2013-03-22 06:32:00,
2013-03-22 01:42:00,32.0,28.0,29.88,East,80,3.0,7.0,84,0.00,,,0.00,,2013-03-22 06:42:00,
2013-03-22 01:52:00,32.0,28.0,29.90,NNE,20,1.0,5.0,85,0.00,,,0.00,,2013-03-22 06:52:00,
2013-03-22 02:02:00,31.0,27.0,29.91,NNW,336,0.0,2.0,86,0.00,,,0.00,,2013-03-22 07:02:00,
2013-03-22 02:12:00,31.0,27.0,29.91,NNW,336,0.0,2.0,86,0.00,,,0.00,,2013-03-22 07:12:00,
2013-03-22 02:22:00,31.0,28.0,29.91,North,351,0.0,0.0,87,0.00,,,0.00,,2013-03-22 07:22:00,
2013-03-22 02:32:00,31.0,28.0,29.91,North,351,0.0,0.0,87,0.00,,,0.00,,2013-03-22 07:32:00,
2013-03-22 02:42:00,31.0,28.0,29.91,North,351,0.0,0.0,87,0.00,,,0.00,,2013-03-22 07:42:00,
2013-03-22 02:52:00,31.0,28.0,29.91,ENE,69,0.0,0.0,88,0.00,,,0.00,,2013-03-22 07:52:00,
2013-03-22 03:03:00,31.0,28.0,29.91,NE,34,0.0,0.0,89,0.00,,,0.00,,2013-03-22 08:03:00,
2013-03-22 03:12:00,31.0,28.0,29.91,NE,34,0.0,0.0,89,0.00,,,0.00,,2013-03-22 08:12:00,
2013-03-22 03:22:00,30.0,27.0,29.91,ENE,65,0.0,1.0,89,0.00,,,0.00,,2013-03-22 08:22:00,
2013-03-22 03:32:00,30.0,27.0,29.90,ENE,65,0.0,0.0,90,0.00,,,0.00,,2013-03-22 08:32:00,
2013-03-22 03:42:00,30.0,27.0,29.90,ENE,65,0.0,0.0,90,0.00,,,0.00,,2013-03-22 08:42:00,
2013-03-22 03:52:00,30.0,27.0,29.89,East,90,0.0,1.0,90,0.00,,,0.00,,2013-03-22 08:52:00,
2013-03-22 04:02:00,31.0,28.0,29.88,ENE,64,2.0,4.0,90,0.00,,,0.00,,2013-03-22 09:02:00,
2013-03-22 04:12:00,31.0,28.0,29.88,ENE,64,2.0,4.0,90,0.00,,,0.00,,2013-03-22 09:12:00,
2013-03-22 04:22:00,30.0,27.0,29.88,ENE,63,1.0,5.0,90,0.00,,,0.00,,2013-03-22 09:22:00,
2013-03-22 04:32:00,30.0,27.0,29.88,NE,54,0.0,4.0,90,0.00,,,0.00,,2013-03-22 09:32:00,
2013-03-22 04:42:00,30.0,27.0,29.88,NE,54,0.0,4.0,90,0.00,,,0.00,,2013-03-22 09:42:00,
2013-03-22 04:53:00,30.0,27.0,29.88,NE,53,0.0,0.0,90,0.00,,,0.00,,2013-03-22 09:53:00,
2013-03-22 05:03:00,30.0,27.0,29.88,NE,52,0.0,0.0,90,0.00,,,0.00,,2013-03-22 10:03:00,
2013-03-22 05:12:00,30.0,27.0,29.88,NE,52,0.0,0.0,90,0.00,,,0.00,,2013-03-22 10:12:00,
2013-03-22 05:22:00,30.0,27.0,29.87,ENE,64,2.0,5.0,90,0.00,,,0.00,,2013-03-22 10:22:00,
2013-03-22 05:32:00,30.0,27.0,29.87,NE,45,2.0,6.0,90,0.00,,,0.00,,2013-03-22 10:32:00,
2013-03-22 05:42:00,30.0,27.0,29.87,NE,45,2.0,6.0,90,0.00,,,0.00,,2013-03-22 10:42:00,
2013-03-22 05:52:00,30.0,27.0,29.86,NNE,29,4.0,10.0,89,0.00,,,0.00,,2013-03-22 10:52:00,
2013-03-22 06:03:00,30.0,27.0,29.88,NE,46,2.0,4.0,89,0.00,,,0.00,,2013-03-22 11:03:00,
2013-03-22 06:12:00,30.0,27.0,29.88,NE,46,2.0,4.0,89,0.00,,,0.00,,2013-03-22 11:12:00,
2013-03-22 06:22:00,30.0,27.0,29.88,ENE,64,3.0,6.0,89,0.00,,,0.00,,2013-03-22 11:22:00,
2013-03-22 06:33:00,30.0,27.0,29.88,ENE,63,3.0,7.0,89,0.00,,,0.00,,2013-03-22 11:33:00,
2013-03-22 06:42:00,30.0,27.0,29.88,ENE,63,3.0,7.0,89,0.00,,,0.00,,2013-03-22 11:42:00,
2013-03-22 07:02:00,30.0,27.0,29.88,NE,54,1.0,4.0,88,0.00,,,0.00,,2013-03-22 12:02:00,
2013-03-22 07:12:00,30.0,27.0,29.90,NE,55,0.0,4.0,88,0.00,,,0.00,,2013-03-22 12:12:00,
2013-03-22 07:22:00,30.0,27.0,29.90,NE,55,0.0,4.0,88,0.00,,,0.00,,2013-03-22 12:22:00,
2013-03-22 07:32:00,29.0,26.0,29.91,NE,55,1.0,3.0,88,0.00,,,0.00,,2013-03-22 12:32:00,
2013-03-22 07:42:00,29.0,26.0,29.91,NE,55,1.0,3.0,88,0.00,,,0.00,,2013-03-22 12:42:00,
2013-03-22 07:52:00,29.0,26.0,29.90,NE,55,3.0,5.0,87,0.00,,,0.00,,2013-03-22 12:52:00,
2013-03-22 08:02:00,29.0,26.0,29.89,East,90,2.0,6.0,87,0.00,,,0.00,,2013-03-22 13:02:00,
2013-03-22 08:12:00,29.0,26.0,29.89,East,90,2.0,6.0,87,0.00,,,0.00,,2013-03-22 13:12:00,
2013-03-22 08:22:00,29.0,26.0,29.89,East,90,2.0,6.0,87,0.00,,,0.00,,2013-03-22 13:22:00,
2013-03-22 08:32:00,29.0,26.0,29.91,ENE,57,1.0,3.0,88,0.00,,,0.00,,2013-03-22 13:32:00,
2013-03-22 08:42:00,29.0,26.0,29.91,ENE,57,1.0,3.0,88,0.00,,,0.00,,2013-03-22 13:42:00,
2013-03-22 08:52:00,29.0,26.0,29.92,East,94,0.0,3.0,88,0.00,,,0.00,,2013-03-22 13:52:00,
2013-03-22 09:02:00,30.0,27.0,29.92,East,94,0.0,0.0,87,0.00,,,0.00,,2013-03-22 14:02:00,
2013-03-22 09:12:00,30.0,27.0,29.92,East,94,0.0,0.0,87,0.00,,,0.00,,2013-03-22 14:12:00,
2013-03-22 09:22:00,30.0,27.0,29.92,East,94,2.0,3.0,87,0.00,,,0.00,,2013-03-22 14:22:00,
2013-03-22 09:32:00,30.0,27.0,29.92,East,94,1.0,3.0,87,0.00,,,0.00,,2013-03-22 14:32:00,
2013-03-22 09:42:00,30.0,27.0,29.92,East,94,1.0,3.0,87,0.00,,,0.00,,2013-03-22 14:42:00,
2013-03-22 09:52:00,31.0,28.0,29.91,East,94,1.0,2.0,87,0.00,,,0.00,,2013-03-22 14:52:00,
2013-03-22 10:03:00,31.0,28.0,29.91,NNE,18,0.0,4.0,87,0.00,,,0.00,,2013-03-22 15:03:00,
2013-03-22 10:12:00,31.0,28.0,29.91,NNE,18,0.0,4.0,87,0.00,,,0.00,,2013-03-22 15:12:00,
2013-03-22 10:22:00,31.0,27.0,29.93,ESE,111,0.0,0.0,86,0.00,,,0.00,,2013-03-22 15:22:00,
2013-03-22 10:32:00,31.0,27.0,29.93,ESE,111,0.0,2.0,85,0.00,,,0.00,,2013-03-22 15:32:00,
2013-03-22 10:42:00,31.0,27.0,29.93,ESE,111,0.0,2.0,85,0.00,,,0.00,,2013-03-22 15:42:00,
2013-03-22 10:52:00,32.0,28.0,29.94,East,79,2.0,3.0,85,0.00,,,0.00,,2013-03-22 15:52:00,
2013-03-22 11:02:00,32.0,28.0,29.94,NNW,347,0.0,0.0,85,0.00,,,0.00,,2013-03-22 16:02:00,
2013-03-22 11:13:00,32.0,28.0,29.93,NNW,346,0.0,0.0,84,0.00,,,0.00,,2013-03-22 16:13:00,
2013-03-22 11:22:00,32.0,28.0,29.93,NNW,346,0.0,0.0,84,0.00,,,0.00,,2013-03-22 16:22:00,
2013-03-22 11:32:00,33.0,28.0,29.94,NNW,347,0.0,0.0,81,0.00,,,0.00,,2013-03-22 16:32:00,
2013-03-22 11:42:00,34.0,29.0,29.95,West,277,0.0,5.0,81,0.00,,,0.00,,2013-03-22 16:42:00,
2013-03-22 11:52:00,34.0,29.0,29.95,West,277,0.0,5.0,81,0.00,,,0.00,,2013-03-22 16:52:00,
2013-03-22 12:03:00,35.0,29.0,29.93,WNW,283,0.0,0.0,79,0.00,,,0.00,,2013-03-22 17:03:00,
2013-03-22 12:12:00,38.0,31.0,29.92,North,9,0.0,0.0,77,0.00,,,0.00,,2013-03-22 17:12:00,
2013-03-22 12:23:00,38.0,31.0,29.92,North,9,0.0,0.0,77,0.00,,,0.00,,2013-03-22 17:23:00,
2013-03-22 12:32:00,38.0,30.0,29.91,NNW,335,0.0,1.0,72,0.00,,,0.00,,2013-03-22 17:32:00,
2013-03-22 12:42:00,38.0,30.0,29.91,NNW,335,0.0,1.0,72,0.00,,,0.00,,2013-03-22 17:42:00,
2013-03-22 12:52:00,38.0,30.0,29.91,NNW,340,0.0,6.0,73,0.00,,,0.00,,2013-03-22 17:52:00,
2013-03-22 13:02:00,39.0,30.0,29.91,ENE,61,0.0,6.0,71,0.00,,,0.00,,2013-03-22 18:02:00,
2013-03-22 13:12:00,39.0,30.0,29.91,ENE,61,0.0,6.0,71,0.00,,,0.00,,2013-03-22 18:12:00,
2013-03-22 13:22:00,40.0,32.0,29.91,NW,326,0.0,4.0,72,0.00,,,0.00,,2013-03-22 18:22:00,
2013-03-22 13:33:00,41.0,31.0,29.91,North,360,2.0,6.0,67,0.00,,,0.00,,2013-03-22 18:33:00,
2013-03-22 13:42:00,41.0,31.0,29.91,North,360,2.0,6.0,67,0.00,,,0.00,,2013-03-22 18:42:00,
2013-03-22 13:52:00,42.0,31.0,29.91,NNW,327,0.0,2.0,66,0.00,,,0.00,,2013-03-22 18:52:00,
2013-03-22 14:02:00,43.0,32.0,29.90,NW,325,0.0,2.0,66,0.00,,,0.00,,2013-03-22 19:02:00,
2013-03-22 14:12:00,43.0,32.0,29.90,NW,325,0.0,2.0,66,0.00,,,0.00,,2013-03-22 19:12:00,
2013-03-22 14:22:00,43.0,32.0,29.89,North,5,0.0,1.0,64,0.00,,,0.00,,2013-03-22 19:22:00,
2013-03-22 14:32:00,44.0,32.0,29.88,NW,310,0.0,3.0,62,0.00,,,0.00,,2013-03-22 19:32:00,
2013-03-22 14:42:00,44.0,32.0,29.88,NW,310,0.0,3.0,62,0.00,,,0.00,,2013-03-22 19:42:00,
2013-03-22 14:52:00,45.0,34.0,29.88,North,351,0.0,3.0,64,0.00,,,0.00,,2013-03-22 19:52:00,
2013-03-22 15:02:00,45.0,33.0,29.87,NE,55,0.0,5.0,63,0.00,,,0.00,,2013-03-22 20:02:00,
2013-03-22 15:12:00,45.0,33.0,29.87,NE,55,0.0,5.0,63,0.00,,,0.00,,2013-03-22 20:12:00,
2013-03-22 15:22:00,47.0,34.0,29.86,NNW,342,0.0,2.0,61,0.00,,,0.00,,2013-03-22 20:22:00,
2013-03-22 15:32:00,47.0,33.0,29.85,ENE,61,0.0,3.0,57,0.00,,,0.00,,2013-03-22 20:32:00,
2013-03-22 15:42:00,47.0,33.0,29.85,ENE,61,0.0,3.0,57,0.00,,,0.00,,2013-03-22 20:42:00,
2013-03-22 15:52:00,48.0,34.0,29.85,ENE,76,0.0,2.0,58,0.00,,,0.00,,2013-03-22 20:52:00,
2013-03-22 16:03:00,49.0,34.0,29.85,East,92,1.0,4.0,56,0.00,,,0.00,,2013-03-22 21:03:00,
2013-03-22 16:12:00,47.0,33.0,29.85,NE,56,1.0,7.0,58,0.00,,,0.00,,2013-03-22 21:12:00,
2013-03-22 16:22:00,47.0,33.0,29.85,NE,56,1.0,7.0,58,0.00,,,0.00,,2013-03-22 21:22:00,
2013-03-22 16:32:00,46.0,33.0,29.85,ENE,60,0.0,3.0,61,0.00,,,0.00,,2013-03-22 21:32:00,
2013-03-22 16:43:00,46.0,33.0,29.85,ENE,60,0.0,3.0,61,0.00,,,0.00,,2013-03-22 21:43:00,
2013-03-22 16:52:00,46.0,33.0,29.86,NNE,30,0.0,4.0,61,0.00,,,0.00,,2013-03-22 21:52:00,
2013-03-22 17:03:00,46.0,33.0,29.85,ENE,67,0.0,7.0,61,0.00,,,0.00,,2013-03-22 22:03:00,
2013-03-22 17:12:00,46.0,33.0,29.85,ENE,67,0.0,7.0,61,0.00,,,0.00,,2013-03-22 22:12:00,
2013-03-22 17:23:00,46.0,33.0,29.85,ENE,74,0.0,5.0,61,0.00,,,0.00,,2013-03-22 22:23:00,
2013-03-22 17:32:00,46.0,34.0,29.86,NE,49,1.0,9.0,62,0.00,,,0.00,,2013-03-22 22:32:00,
2013-03-22 17:42:00,46.0,34.0,29.86,NE,49,1.0,9.0,62,0.00,,,0.00,,2013-03-22 22:42:00,
2013-03-22 17:52:00,46.0,34.0,29.86,ESE,107,0.0,9.0,63,0.00,,,0.00,,2013-03-22 22:52:00,
2013-03-22 18:02:00,47.0,35.0,29.85,NE,40,0.0,4.0,62,0.00,,,0.00,,2013-03-22 23:02:00,
2013-03-22 18:12:00,47.0,35.0,29.85,NE,40,0.0,4.0,62,0.00,,,0.00,,2013-03-22 23:12:00,
2013-03-22 18:22:00,46.0,34.0,29.86,ENE,63,0.0,5.0,63,0.00,,,0.00,,2013-03-22 23:22:00,
2013-03-22 18:32:00,45.0,33.0,29.86,East,84,2.0,4.0,62,0.00,,,0.00,,2013-03-22 23:32:00,
2013-03-22 18:42:00,45.0,33.0,29.86,East,84,2.0,4.0,62,0.00,,,0.00,,2013-03-22 23:42:00,
2013-03-22 18:52:00,44.0,33.0,29.86,NE,51,0.0,6.0,66,0.00,,,0.00,,2013-03-22 23:52:00,
2013-03-22 19:02:00,42.0,32.0,29.86,ENE,69,4.0,10.0,68,0.00,,,0.00,,2013-03-23 00:02:00,
2013-03-22 19:12:00,42.0,32.0,29.86,ENE,69,4.0,10.0,68,0.00,,,0.00,,2013-03-23 00:12:00,
2013-03-22 19:23:00,41.0,32.0,29.87,ENE,64,4.0,7.0,70,0.00,,,0.00,,2013-03-23 00:23:00,
2013-03-22 19:32:00,41.0,32.0,29.87,East,90,4.0,7.0,71,0.00,,,0.00,,2013-03-23 00:32:00,
2013-03-22 19:42:00,40.0,32.0,29.87,ENE,62,3.0,7.0,72,0.00,,,0.00,,2013-03-23 00:42:00,
2013-03-22 19:52:00,40.0,32.0,29.87,ENE,62,3.0,7.0,72,0.00,,,0.00,,2013-03-23 00:52:00,
2013-03-22 20:03:00,40.0,32.0,29.88,ENE,72,2.0,8.0,74,0.00,,,0.00,,2013-03-23 01:03:00,
2013-03-22 20:12:00,40.0,32.0,29.88,ENE,72,2.0,8.0,74,0.00,,,0.00,,2013-03-23 01:12:00,
2013-03-22 20:22:00,38.0,31.0,29.88,East,82,4.0,7.0,75,0.00,,,0.00,,2013-03-23 01:22:00,
2013-03-22 20:32:00,37.0,30.0,29.88,East,101,1.0,6.0,77,0.00,,,0.00,,2013-03-23 01:32:00,
2013-03-22 20:42:00,37.0,30.0,29.88,East,101,1.0,6.0,77,0.00,,,0.00,,2013-03-23 01:42:00,
2013-03-22 20:52:00,36.0,30.0,29.89,ENE,71,3.0,10.0,78,0.00,,,0.00,,2013-03-23 01:52:00,
2013-03-22 21:02:00,36.0,30.0,29.90,ENE,65,2.0,4.0,80,0.00,,,0.00,,2013-03-23 02:02:00,
2013-03-22 21:12:00,36.0,30.0,29.90,ENE,65,2.0,4.0,80,0.00,,,0.00,,2013-03-23 02:12:00,
2013-03-22 21:22:00,35.0,30.0,29.91,ENE,78,2.0,5.0,81,0.00,,,0.00,,2013-03-23 02:22:00,
2013-03-22 21:32:00,34.0,29.0,29.90,East,96,2.0,5.0,82,0.00,,,0.00,,2013-03-23 02:32:00,
2013-03-22 21:42:00,34.0,29.0,29.90,East,96,2.0,5.0,82,0.00,,,0.00,,2013-03-23 02:42:00,
2013-03-22 21:52:00,34.0,29.0,29.91,East,93,2.0,7.0,83,0.00,,,0.00,,2013-03-23 02:52:00,
2013-03-22 22:02:00,33.0,29.0,29.91,ENE,58,1.0,7.0,84,0.00,,,0.00,,2013-03-23 03:02:00,
2013-03-22 22:12:00,33.0,29.0,29.91,ENE,58,1.0,7.0,84,0.00,,,0.00,,2013-03-23 03:12:00,
2013-03-22 22:22:00,33.0,29.0,29.92,East,93,2.0,5.0,85,0.00,,,0.00,,2013-03-23 03:22:00,
2013-03-22 22:33:00,33.0,29.0,29.92,ENE,76,0.0,7.0,85,0.00,,,0.00,,2013-03-23 03:33:00,
2013-03-22 22:43:00,33.0,29.0,29.92,ENE,76,0.0,7.0,85,0.00,,,0.00,,2013-03-23 03:43:00,
2013-03-22 22:53:00,33.0,29.0,29.92,ENE,65,1.0,4.0,85,0.00,,,0.00,,2013-03-23 03:53:00,
2013-03-22 23:02:00,33.0,29.0,29.92,East,96,1.0,4.0,85,0.00,,,0.00,,2013-03-23 04:02:00,
2013-03-22 23:12:00,33.0,29.0,29.92,East,96,1.0,4.0,85,0.00,,,0.00,,2013-03-23 04:12:00,
2013-03-22 23:23:00,33.0,29.0,29.93,East,83,2.0,8.0,86,0.00,,,0.00,,2013-03-23 04:23:00,
2013-03-22 23:32:00,34.0,30.0,29.93,ENE,74,2.0,6.0,86,0.00,,,0.00,,2013-03-23 04:32:00,
2013-03-22 23:43:00,34.0,30.0,29.93,ENE,74,2.0,6.0,86,0.00,,,0.00,,2013-03-23 04:43:00,
2013-03-22 23:53:00,35.0,31.0,29.93,ENE,63,1.0,7.0,85,0.00,,,0.00,,2013-03-23 04:53:00,